ASA1406 KRDU-KSAN

Flight info

Callsign ASA1406
Flight time N/A
Altitude 34000
Route SHPRD4 SHPRD VXV BNA KK36E IFI KA33Y ABQ J18 HOGGZ LUCKI1
Aircraft B739/M-SDE2E3FGHIRWXY/LB1

Departure

Time 2026-05-06 21:00
Airport Raleigh-Durham International Airport (KRDU)

Arrival

Time N/A
Airport San Diego International Airport (KSAN)
Time Latitude Longitude Altitude Speed Heading
2026-05-06 20:42 35.87292 -78.79082 435 ft 0 kts
2026-05-06 20:47 35.87290 -78.79082 435 ft 2 kts
2026-05-06 20:47 35.87264 -78.79081 428 ft 4 kts 349°
2026-05-06 20:48 35.87238 -78.79072 423 ft 4 kts 334°
2026-05-06 20:48 35.87215 -78.79056 421 ft 4 kts 326°
2026-05-06 20:48 35.87192 -78.79039 421 ft 4 kts 347°
2026-05-06 20:48 35.87186 -78.79037 421 ft 1 kts 355°
2026-05-06 20:51 35.87192 -78.79035 421 ft 3 kts 20°
2026-05-06 20:51 35.87226 -78.78989 435 ft 12 kts 52°
2026-05-06 20:51 35.87285 -78.78910 432 ft 13 kts 46°
2026-05-06 20:51 35.87345 -78.78833 435 ft 12 kts 46°
2026-05-06 20:52 35.87405 -78.78760 433 ft 12 kts 42°
2026-05-06 20:52 35.87464 -78.78691 426 ft 12 kts 44°
2026-05-06 20:52 35.87521 -78.78622 426 ft 11 kts 45°
2026-05-06 20:52 35.87580 -78.78550 432 ft 13 kts 45°
2026-05-06 20:53 35.87643 -78.78471 433 ft 13 kts 45°
2026-05-06 20:53 35.87711 -78.78408 431 ft 13 kts 359°
2026-05-06 20:53 35.87781 -78.78467 433 ft 12 kts 316°
2026-05-06 20:53 35.87848 -78.78549 423 ft 15 kts 315°
2026-05-06 20:54 35.87925 -78.78642 423 ft 15 kts 315°
2026-05-06 20:54 35.87998 -78.78731 425 ft 15 kts 315°
2026-05-06 20:54 35.88071 -78.78819 424 ft 14 kts 315°
2026-05-06 20:54 35.88140 -78.78903 420 ft 14 kts 315°
2026-05-06 20:55 35.88206 -78.78983 425 ft 13 kts 320°
2026-05-06 20:55 35.88287 -78.78965 425 ft 13 kts 42°
2026-05-06 20:55 35.88351 -78.78891 421 ft 12 kts 43°
2026-05-06 20:55 35.88411 -78.78819 416 ft 12 kts 44°
2026-05-06 20:56 35.88470 -78.78747 418 ft 12 kts 45°
2026-05-06 20:56 35.88526 -78.78675 425 ft 12 kts 47°
2026-05-06 20:56 35.88587 -78.78596 416 ft 14 kts 46°
2026-05-06 20:56 35.88665 -78.78498 420 ft 16 kts 45°
2026-05-06 20:57 35.88745 -78.78400 422 ft 16 kts 45°
2026-05-06 20:57 35.88821 -78.78305 424 ft 15 kts 45°
2026-05-06 20:57 35.88896 -78.78214 423 ft 16 kts 45°
2026-05-06 20:57 35.88974 -78.78118 416 ft 16 kts 45°
2026-05-06 20:58 35.89050 -78.78024 420 ft 15 kts 45°
2026-05-06 20:58 35.89122 -78.77934 415 ft 14 kts 45°
2026-05-06 20:58 35.89192 -78.77848 419 ft 14 kts 45°
2026-05-06 20:58 35.89259 -78.77766 419 ft 13 kts 45°
2026-05-06 20:59 35.89339 -78.77779 425 ft 13 kts 321°
2026-05-06 20:59 35.89325 -78.77872 422 ft 13 kts 226°
2026-05-06 20:59 35.89216 -78.78004 423 ft 46 kts 225°
2026-05-06 20:59 35.88830 -78.78482 419 ft 109 kts 225°
2026-05-06 21:00 35.88171 -78.79293 418 ft 157 kts 224°
2026-05-06 21:00 35.87327 -78.80287 809 ft 168 kts 224°
2026-05-06 21:00 35.86653 -78.81470 1462 ft 173 kts 253°
2026-05-06 21:00 35.86502 -78.82952 2068 ft 180 kts 260°
2026-05-06 21:01 35.86385 -78.84573 2349 ft 202 kts 260°
2026-05-06 21:01 35.86264 -78.86401 2683 ft 223 kts 262°
2026-05-06 21:01 35.86150 -78.88307 3478 ft 218 kts 262°
2026-05-06 21:01 35.86037 -78.90196 4156 ft 228 kts 263°
2026-05-06 21:02 35.85918 -78.92162 4778 ft 240 kts 264°
2026-05-06 21:02 35.85792 -78.94261 5655 ft 241 kts 264°
2026-05-06 21:02 35.85667 -78.96335 6491 ft 244 kts 264°
2026-05-06 21:02 35.85539 -78.98437 7246 ft 249 kts 265°
2026-05-06 21:03 35.85407 -79.00577 7898 ft 251 kts 265°
2026-05-06 21:03 35.85273 -79.02736 8504 ft 255 kts 265°
2026-05-06 21:03 35.85137 -79.04925 9091 ft 258 kts 266°
2026-05-06 21:03 35.84998 -79.07141 9707 ft 260 kts 266°
2026-05-06 21:04 35.84859 -79.09352 10267 ft 265 kts 266°
2026-05-06 21:04 35.84713 -79.11692 10430 ft 284 kts 266°
2026-05-06 21:04 35.84553 -79.14232 10581 ft 303 kts 266°
2026-05-06 21:04 35.84386 -79.16856 10708 ft 320 kts 266°
2026-05-06 21:05 35.84208 -79.19653 10841 ft 336 kts 266°
2026-05-06 21:05 35.84020 -79.22587 10947 ft 351 kts 266°
2026-05-06 21:05 35.83824 -79.25638 11130 ft 362 kts 266°
2026-05-06 21:05 35.83624 -79.28737 11547 ft 364 kts 266°
2026-05-06 21:06 35.83413 -79.31861 12054 ft 365 kts 265°
2026-05-06 21:06 35.83180 -79.34976 12533 ft 366 kts 265°
2026-05-06 21:06 35.82940 -79.38099 13007 ft 367 kts 265°
2026-05-06 21:06 35.82698 -79.41239 13438 ft 369 kts 265°
2026-05-06 21:07 35.82456 -79.44400 13853 ft 371 kts 265°
2026-05-06 21:07 35.82214 -79.47567 14258 ft 372 kts 265°
2026-05-06 21:07 35.81972 -79.50744 14649 ft 373 kts 266°
2026-05-06 21:07 35.81699 -79.53937 15006 ft 376 kts 263°
2026-05-06 21:08 35.81196 -79.57110 15354 ft 379 kts 260°
2026-05-06 21:08 35.80657 -79.60219 15718 ft 381 kts 260°
2026-05-06 21:08 35.80097 -79.63430 16067 ft 382 kts 260°
2026-05-06 21:08 35.79539 -79.66638 16427 ft 384 kts 260°
2026-05-06 21:09 35.78984 -79.69842 16760 ft 386 kts 261°
2026-05-06 21:09 35.78423 -79.73098 17121 ft 388 kts 261°
2026-05-06 21:09 35.77864 -79.76349 17469 ft 389 kts 261°
2026-05-06 21:09 35.77302 -79.79616 17802 ft 391 kts 261°
2026-05-06 21:10 35.76738 -79.82892 18132 ft 392 kts 261°
2026-05-06 21:10 35.76171 -79.86188 18428 ft 394 kts 261°
2026-05-06 21:10 35.75602 -79.89485 18694 ft 395 kts 261°
2026-05-06 21:10 35.75028 -79.92809 18966 ft 397 kts 261°
2026-05-06 21:11 35.74453 -79.96130 19246 ft 398 kts 260°
2026-05-06 21:11 35.73874 -79.99466 19501 ft 399 kts 260°
2026-05-06 21:11 35.73294 -80.02810 19745 ft 401 kts 260°
2026-05-06 21:11 35.72708 -80.06174 20017 ft 402 kts 260°
2026-05-06 21:12 35.72130 -80.09490 20267 ft 403 kts 260°
2026-05-06 21:12 35.71540 -80.12865 20492 ft 404 kts 260°